Torna al catalogo

NOAA 16 DEB

AttivoSSO
NORAD 41085·DEBRIS·🇺🇸 United States

Lanciato Sep 21, 2000 da Vandenberg Space Force Base

Loading…

Prossimi Passaggi (prossime 24 ore)

TLE

AggiornatoSource: Space-Track

Epoca: Sep 14, 2026, 11:25 UTC

1 41085U 00055AU  26257.47635168  .00000815  00000-0  37289-3 0  9996
2 41085  98.6991 346.0378 0018943 349.6943  10.3844 14.24074240558978

Traccia NOAA 16 DEB in tempo reale con AllMySat

Download on the App Store